This demonstration page uses our WeatherBlox Daily Observations layout. Learn more.

Left ArrowRight Arrow

38.20091, -84.87328

Hourly Observations for February 25, 2018

Temp ( °F °C ) Dew Point ( °F °C ) Humidity (%) Winds ( mph kmh ) Pressure ( in mb ) Visibility ( mi km ) Precip ( " mm )
12:01 am 00:01 Cloudy with Nearby Thunderstorms 59 15 55 12.8 87 87 SW 23 37 29.83 1010 1 1 0.29 7.37
12:06 am 00:06 Cloudy with Heavy Rain 59 15 56 13.3 90 90 SW 23 37 29.83 1010 1 2 0.33 8.38
12:10 am 00:10 Cloudy with Heavy Rain 59 15 56 13.3 90 90 WSW 17 28 29.83 1010 2 3 0.37 9.40
12:28 am 00:28 Cloudy with Rain 59 15 56 13.3 90 90 SW 10 17 29.80 1009 4 6 0.45 11.43
12:53 am 00:53 Cloudy with Rain 60 15.6 56 13.3 86 86 SW 12 19 29.78 1008 5 8 0.53 13.46
1:53 am 01:53 Cloudy with Rain 61 16.1 56 13.3 84 84 SSW 10 17 29.77 1008 7 11 0.10 2.54
2:53 am 02:53 Cloudy with Light Rain 60 15.6 55 12.8 84 84 S 16 26 29.74 1007 10 16 0.04 1.02
3:21 am 03:21 Cloudy 60 15.6 54 12.2 80 80 SW 15 24 29.80 1009 10 16 0.00 0.03
3:53 am 03:53 Cloudy 60 15.6 54 12.2 80 80 SSW 15 24 29.76 1008 10 16 0.00 0.03
4:53 am 04:53 Cloudy 59 15 54 12.2 83 83 SW 12 19 29.79 1009 10 16 0.00 0.00
5:20 am 05:20 Cloudy 58 14.4 53 11.7 84 84 SSW 14 22 29.80 1009 10 16 0.00 0.00
5:45 am 05:45 Cloudy with Light Rain 58 14.4 53 11.7 84 84 VRB 6 9 29.83 1010 10 16 0.01 0.25
5:53 am 05:53 Cloudy with Light Rain 58 14.4 53 11.7 84 84 WSW 14 22 29.83 1010 10 16 0.01 0.25
6:17 am 06:17 Cloudy 55 12.8 49 9.4 80 80 WNW 13 20 29.88 1012 10 16 0.00 0.03
6:35 am 06:35 Cloudy 54 12.2 47 8.3 77 77 WNW 13 20 29.88 1012 10 16 0.00 0.03
6:53 am 06:53 Cloudy 53 11.7 46 7.8 77 77 WNW 15 24 29.90 1013 10 16 0.00 0.03
7:53 am 07:53 Mostly Sunny 48 8.9 36 2.2 63 63 WNW 9 15 29.97 1015 10 16 0.00 0.00
8:53 am 08:53 Sunny 47 8.3 38 3.3 71 71 WSW 6 9 30.02 1017 10 16 0.00 0.00
9:53 am 09:53 Sunny 47 8.3 35 1.7 63 63 W 7 11 30.04 1017 10 16 0.00 0.00
10:53 am 10:53 Sunny 48 8.9 36 2.2 63 63 W 6 9 30.05 1018 10 16 0.00 0.00
11:53 am 11:53 Mostly Sunny 49 9.4 37 2.8 64 64 W 8 13 30.07 1018 10 16 0.00 0.00
12:53 pm 12:53 Sunny 48 8.9 34 1.1 58 58 SW 10 17 30.07 1018 10 16 0.00 0.00
1:53 pm 13:53 Sunny 49 9.4 34 1.1 56 56 WSW 8 13 30.07 1018 10 16 0.00 0.00
2:53 pm 14:53 Sunny 50 10 33 0.6 52 52 WSW 7 11 30.06 1018 10 16 0.00 0.00
3:53 pm 15:53 Sunny 49 9.4 34 1.1 56 56 WSW 7 11 30.07 1018 10 16 0.00 0.00
4:53 pm 16:53 Sunny 49 9.4 33 0.6 55 55 W 6 9 30.06 1018 10 16 0.00 0.00
5:53 pm 17:53 Sunny 48 8.9 32 0 54 54 WSW 3 6 30.09 1019 10 16 0.00 0.00
6:53 pm 18:53 Clear 47 8.3 33 0.6 59 59 Calm 30.11 1020 10 16 0.00 0.00
7:53 pm 19:53 Clear 46 7.8 34 1.1 63 63 Calm 30.11 1020 10 16 0.00 0.00
8:53 pm 20:53 Clear 44 6.7 36 2.2 73 73 Calm 30.13 1020 10 16 0.00 0.00
9:53 pm 21:53 Clear 42 5.6 36 2.2 79 79 Calm 30.16 1021 10 16 0.00 0.00
10:53 pm 22:53 Clear 42 5.6 37 2.8 82 82 SW 3 6 30.18 1022 10 16 0.00 0.00
11:53 pm 23:53 Clear 42 5.6 37 2.8 82 82 Calm 30.18 1022 10 16 0.00 0.00

Powered by AerisWeather